Regional Weather Roundup
Issued by NWS Midland/Odessa, TX

Skip options and go directly to product.
Home | Oldest Version | Previous Version | Current Version | All | Graphics & Text | Save Text | Print | Product List | Glossary On

Skip product version selection by date and time.   
128
ASUS44 KMAF 231810
RWRMAF
MIDLAND AREA WEATHER ROUNDUP
NATIONAL WEATHER SERVICE MIDLAND TX
100 PM CDT WED APR 23 2014

...IN SOUTHWEST TEXAS AND SOUTHEAST NEW MEXICO...

CITY           SKY/WX    TMP DP  RH WIND       PRES   REMARKS
ALPINE         FAIR      82  36  18 SW21G28   29.98F
ANDREWS        FAIR      83  48  29 SW15      29.82F
ARTESIA        PTSUNNY   81  27  13 SW28G33   29.81F
BIG SPRING     FAIR      88  53  29 S23       29.82F
CARLSBAD       PTSUNNY   84  22  10 W18G33    29.80F
DRYDEN           N/A     90  56  31 SE6       29.81F
FORT STOCKTON  FAIR      91  37  15 SW18G28   29.81F
GUAD PASS      MOSUNNY   77  28  16 SW33G40   29.94F
HOBBS          PTSUNNY   82  32  16 SW21G28   29.84F
MARFA          FAIR      79  30  17 W12G17    29.97F
MIDLAND AIRPK  FAIR      86  50  29 SW16G26   29.81F
MIDLAND INTL   FAIR      85  53  33 SW18G26   29.80F
ODESSA           N/A    N/A N/A N/A MISG      29.82F
PECOS          FAIR      83  50  31 W10       29.80F
PRESIDIO       FAIR      89  25  10 SW9       29.84F
SEMINOLE       FAIR      82  45  27 SW16G23   29.83F
SNYDER         FAIR      83  57  42 S25G31    29.82F
WINK           FAIR      87  40  19 W14       29.79F
$$
...OTHER STATIONS IN TEXAS...

CITY           SKY/WX    TMP DP  RH WIND       PRES   REMARKS
ABILENE        FAIR      84  59  42 S20G26    29.83F
AMARILLO       FAIR      79  50  36 S29G37    29.77F
AUSTIN         FAIR      83  65  54 S9        29.89F
BROWNSVILLE    FAIR      85  65  51 S21G26    29.89F
CORPUS CHRISTI FAIR      86  65  49 S13       29.90F
DALLAS FTW     FAIR      83  60  45 S15G22    29.87F
DEL RIO        FAIR      88  59  37 SE23G33   29.80F
EL PASO        MOSUNNY   80  24  12 SW21G26   29.88F
HOUSTON INT    FAIR      80  65  59 S9        29.94F
LUBBOCK        PTSUNNY   81  52  36 SW23G37   29.79F
SAN ANGELO     FAIR      87  56  34 S18G26    29.82F
SAN ANTONIO    FAIR      86  63  45 SE13G26   29.90F
WACO           FAIR      82  62  50 S15       29.89F
WICHITA FALLS  NOT AVBL
$$
...OTHER LOCATIONS IN NEW MEXICO...

CITY           SKY/WX    TMP DP  RH WIND       PRES   REMARKS
ALAMAGORDO     SUNNY     77  23  13 S20       29.89F
ALBUQUERQUE    MOSUNNY   69  21  16 SW13      29.87F
CANNON AFB     PTSUNNY   78  32  18 SW25      29.79F
CLOVIS         PTSUNNY   79  37  22 SW22G31   29.82F
HOLLOMAN AFB   SUNNY     79  21  11 S13G25    29.86F
ROSWELL        MOSUNNY   83  19   9 S10G22    29.76F
RUIDOSO        SUNNY     66  16  14 SW28G36   29.96F
SANTA FE       SUNNY     67  22  18 W20G25    29.88F
TRUTH OR CONSE SUNNY     75  16  10 S14G23    29.84F
TUCUMCARI      PTSUNNY   80  34  19 SW21G28   29.73F
$$

USA.gov is the U.S. government's official web portal to all federal, state and local government web resources and services.